Weather History for Wolf Creek Pass, CO

Change the Weather History Date:

Wednesday, February 13, 2013

  Actual Average (KALS) Record (KALS)
Temperature  
Mean Temperature 16 °F 22 °F  
Max Temperature 26 °F 39 °F 57 °F (1954)
Min Temperature 5 °F 5 °F -35 °F (1948)
Degree Days  
Heating Degree Days 50 43  
Month to date heating degree days 584  
Since 1 July heating degree days 5731  
Cooling Degree Days 0 0  
Month to date cooling degree days 0  
Year to date cooling degree days 0  
Moisture  
Dew Point 5 °F    
Average Humidity 69    
Maximum Humidity 92    
Minimum Humidity 37    
Precipitation  
Precipitation 0.00 in 0.00 in 0.19 in (1997)
Month to date precipitation 0.11  
Year to date precipitation 0.37  
Snow  
Snow 0.00 in 0.10 in 3.20 in (1951)
Month to date snowfall 1.8  
Since 1 July snowfall 16.1  
Snow Depth -    
Sea Level Pressure  
Sea Level Pressure 30.04 in    
Wind  
Wind Speed 8 mph (North)    
Max Wind Speed 18 mph    
Max Gust Speed 24 mph    
Visibility 10 miles    
Events      
T = Trace of Precipitation, MM = Missing Value Source: NWS Daily Summary

Daily Weather History Graph

Daily Weather History Graph

Search for Another Location

Airport:

Trip Planner

Search our weather history database for the weather conditions in past years. The results will help you decide how hot, cold, wet, or windy it might be!

Date:

Astronomy

Feb. 13, 2013 Rise Set
Actual Time 6:58 AM MST 5:44 PM MST
Civil Twilight 6:31 AM MST 6:11 PM MST
Nautical Twilight 6:00 AM MST 6:42 PM MST
Astronomical Twilight 5:30 AM MST 7:12 PM MST
Moon 8:35 AM MST (2/13) 9:44 PM MST (2/13)
Length of Visible Light 11h 40m
Length of Day
10h 46m
Waxing Crescent, 14% of the Moon is Illuminated
Feb 13
Waxing Crescent
Feb 17
First Quarter
Feb 25
Full
Mar 4
Last Quarter
Mar 11
New

Hourly Weather History & Observations

Time (MST) Temp. Windchill Dew Point Humidity Pressure Visibility Wind Dir Wind Speed Gust Speed Precip Events Conditions
12:31 AM 5.0 °F -5.6 °F -0.4 °F 78% 30.02 in 10.0 mi WSW 5.8 mph - N/A   Scattered Clouds
12:50 AM 6.8 °F -2.0 °F -0.4 °F 72% 30.02 in 10.0 mi SW 4.6 mph - N/A   Scattered Clouds
1:11 AM 6.8 °F -0.1 °F -0.4 °F 72% 30.02 in 10.0 mi WSW 3.5 mph - N/A   Clear
1:31 AM 8.6 °F 0.1 °F 1.4 °F 73% 30.02 in 10.0 mi SSW 4.6 mph - N/A   Scattered Clouds
1:51 AM 6.8 °F -4.8 °F 1.4 °F 79% 30.02 in 10.0 mi West 6.9 mph - N/A   Clear
2:11 AM 6.8 °F -4.8 °F 3.2 °F 85% 30.02 in 10.0 mi NW 6.9 mph - N/A   Scattered Clouds
2:31 AM 6.8 °F -5.9 °F 3.2 °F 85% 30.02 in 10.0 mi West 8.1 mph 16.1 mph N/A   Scattered Clouds
2:51 AM 6.8 °F -3.5 °F 3.2 °F 85% 30.02 in 10.0 mi WNW 5.8 mph - N/A   Scattered Clouds
3:11 AM 6.8 °F -4.8 °F 3.2 °F 85% 30.01 in 10.0 mi WNW 6.9 mph 16.1 mph N/A   Clear
3:31 AM 8.6 °F 0.1 °F 3.2 °F 79% 30.01 in 10.0 mi NW 4.6 mph - N/A   Clear
3:51 AM 6.8 °F -6.9 °F 3.2 °F 85% 30.00 in 10.0 mi NNE 9.2 mph - N/A   Clear
4:11 AM 6.8 °F -9.3 °F 3.2 °F 85% 30.00 in 10.0 mi NE 12.7 mph - N/A   Clear
4:31 AM 5.0 °F -4.1 °F 3.2 °F 92% 30.00 in 10.0 mi East 4.6 mph - N/A   Clear
4:51 AM 6.8 °F -0.1 °F 3.2 °F 85% 30.00 in 10.0 mi NNW 3.5 mph - N/A   Clear
5:11 AM 8.6 °F -1.3 °F 3.2 °F 79% 30.00 in 10.0 mi North 5.8 mph - N/A   Scattered Clouds
5:31 AM 8.6 °F 0.1 °F 3.2 °F 79% 30.00 in 10.0 mi NNW 4.6 mph - N/A   Clear
5:51 AM 6.8 °F -0.1 °F 3.2 °F 85% 30.00 in 10.0 mi NNW 3.5 mph - N/A   Clear
6:11 AM 5.0 °F -4.1 °F 3.2 °F 92% 30.00 in 10.0 mi ENE 4.6 mph - N/A   Clear
6:31 AM 5.0 °F -12.3 °F 1.4 °F 85% 30.00 in 10.0 mi ENE 13.8 mph - N/A   Clear
6:51 AM 5.0 °F -13.6 °F 1.4 °F 85% 29.99 in 10.0 mi NE 16.1 mph - N/A   Clear
7:11 AM 5.0 °F -14.7 °F 1.4 °F 85% 29.99 in 10.0 mi NE 18.4 mph - N/A   Clear
7:31 AM 5.0 °F -14.7 °F 3.2 °F 92% 30.01 in 10.0 mi NE 18.4 mph - N/A   Clear
7:51 AM 8.6 °F -8.3 °F 3.2 °F 79% 30.01 in 10.0 mi NE 15.0 mph - N/A   Clear
8:11 AM 10.4 °F -5.4 °F 3.2 °F 73% 30.02 in 10.0 mi NE 13.8 mph 21.9 mph N/A   Clear
8:31 AM 12.2 °F -4.8 °F 5.0 °F 73% 30.02 in 10.0 mi NNE 17.3 mph 24.2 mph N/A   Clear
8:51 AM 12.2 °F -4.8 °F 5.0 °F 73% 30.04 in 10.0 mi NE 17.3 mph 21.9 mph N/A   Clear
9:11 AM 14.0 °F -0.8 °F 5.0 °F 67% 30.04 in 10.0 mi NE 13.8 mph 21.9 mph N/A   Clear
9:31 AM 17.6 °F 2.2 °F 5.0 °F 58% 30.04 in 5.0 mi NE 17.3 mph - N/A   Haze
9:51 AM 19.4 °F 5.0 °F 5.0 °F 54% 30.04 in 10.0 mi NE 16.1 mph - N/A   Clear
10:11 AM 19.4 °F 6.0 °F 8.6 °F 63% 30.05 in 10.0 mi NE 13.8 mph - N/A   Clear
10:31 AM 21.2 °F 8.9 °F 10.4 °F 63% 30.06 in 10.0 mi NE 12.7 mph - N/A   Clear
10:51 AM 23.0 °F 13.1 °F 8.6 °F 54% 30.07 in 10.0 mi NE 9.2 mph 24.2 mph N/A   Clear
11:11 AM 23.0 °F 13.9 °F 10.4 °F 59% 30.08 in 10.0 mi NE 8.1 mph 18.4 mph N/A   Clear
11:31 AM 24.8 °F 14.0 °F 3.2 °F 40% 30.07 in 10.0 mi NNE 11.5 mph 21.9 mph N/A   Clear
11:51 AM 24.8 °F 16.9 °F 6.8 °F 46% 30.08 in 10.0 mi NNE 6.9 mph 21.9 mph N/A   Clear
12:11 PM 26.6 °F 18.2 °F 5.0 °F 40% 30.08 in 10.0 mi North 8.1 mph - N/A   Clear
12:31 PM 26.6 °F 19.1 °F 3.2 °F 37% 30.07 in 10.0 mi North 6.9 mph - N/A   Clear
12:51 PM 26.6 °F 19.1 °F 6.8 °F 43% 30.07 in 10.0 mi NW 6.9 mph - N/A   Clear
1:11 PM 26.6 °F 20.0 °F 6.8 °F 43% 30.06 in 10.0 mi West 5.8 mph - N/A   Clear
1:31 PM 26.6 °F 16.8 °F 5.0 °F 40% 30.05 in 10.0 mi West 10.4 mph 16.1 mph N/A   Clear
1:51 PM 23.0 °F 13.9 °F 17.6 °F 80% 30.05 in 10.0 mi South 8.1 mph 16.1 mph N/A   Clear
2:10 PM 23.0 °F 13.1 °F 17.6 °F 80% 30.04 in 10.0 mi SSW 9.2 mph 16.1 mph N/A   Clear
2:31 PM 23.0 °F 11.1 °F 15.8 °F 74% 30.04 in 10.0 mi SSW 12.7 mph - N/A   Clear
2:51 PM 23.0 °F 9.6 °F 12.2 °F 63% 30.04 in 10.0 mi SW 16.1 mph - N/A   Clear
3:11 PM 23.0 °F 10.1 °F 12.2 °F 63% 30.04 in 10.0 mi SSW 15.0 mph - N/A   Clear
3:31 PM 23.0 °F 9.2 °F 14.0 °F 68% 30.04 in 10.0 mi SSW 17.3 mph - N/A   Clear
3:51 PM 23.0 °F 10.1 °F 12.2 °F 63% 30.04 in 10.0 mi SW 15.0 mph - N/A   Clear
4:11 PM 21.2 °F 7.8 °F 14.0 °F 74% 30.04 in 10.0 mi SW 15.0 mph - N/A   Clear
4:31 PM 21.2 °F 9.5 °F 12.2 °F 68% 30.05 in 10.0 mi SW 11.5 mph - N/A   Clear
4:50 PM 21.2 °F 14.9 °F 14.0 °F 74% 30.06 in 10.0 mi SW 4.6 mph - N/A   Clear
5:11 PM 19.4 °F - 14.0 °F 80% 30.06 in 10.0 mi Calm Calm - N/A   Clear
5:31 PM 19.4 °F 7.9 °F 8.6 °F 63% 30.07 in 10.0 mi North 10.4 mph - N/A   Clear
5:51 PM 19.4 °F 6.6 °F 8.6 °F 63% 30.07 in 10.0 mi North 12.7 mph 19.6 mph N/A   Clear
6:11 PM 17.6 °F 3.2 °F 5.0 °F 58% 30.07 in 10.0 mi North 15.0 mph 20.7 mph N/A   Clear
6:31 PM 17.6 °F 7.3 °F 5.0 °F 58% 30.07 in 10.0 mi NNW 8.1 mph 19.6 mph N/A   Clear
6:51 PM 14.0 °F 3.9 °F 10.4 °F 86% 30.08 in 10.0 mi NE 6.9 mph - N/A   Clear
7:11 PM 15.8 °F 4.2 °F 10.4 °F 79% 30.09 in 10.0 mi ENE 9.2 mph - N/A   Clear
7:31 PM 14.0 °F 2.0 °F 8.6 °F 79% 30.08 in 10.0 mi NE 9.2 mph - N/A   Clear
7:51 PM 14.0 °F 8.2 °F 5.0 °F 67% 30.08 in 10.0 mi NE 3.5 mph - N/A   Clear
8:11 PM 14.0 °F 5.1 °F 5.0 °F 67% 30.09 in 10.0 mi East 5.8 mph - N/A   Clear
8:31 PM 14.0 °F 8.2 °F 3.2 °F 62% 30.08 in 10.0 mi NNE 3.5 mph - N/A   Clear
8:51 PM 14.0 °F 8.2 °F -0.4 °F 53% 30.08 in 10.0 mi North 3.5 mph - N/A   Clear
9:09 PM 14.0 °F - -0.4 °F 53% 30.08 in 10.0 mi Calm Calm - N/A   Clear
9:29 PM 15.8 °F 10.2 °F -0.4 °F 49% 30.08 in 10.0 mi NNE 3.5 mph - N/A   Clear
9:50 PM 12.2 °F 1.7 °F -0.4 °F 57% 30.08 in 10.0 mi ENE 6.9 mph - N/A   Clear
10:29 PM 12.2 °F 2.9 °F -0.4 °F 57% 30.08 in 10.0 mi NNE 5.8 mph - N/A   Clear
10:50 PM 12.2 °F 4.3 °F -2.2 °F 53% 30.08 in 10.0 mi North 4.6 mph - N/A   Clear
11:11 PM 12.2 °F 1.7 °F -0.4 °F 57% 30.08 in 10.0 mi WSW 6.9 mph - N/A   Clear
11:31 PM 12.2 °F -2.5 °F 1.4 °F 62% 30.08 in 10.0 mi SW 12.7 mph - N/A   Clear
11:51 PM 12.2 °F -2.5 °F 1.4 °F 62% 30.07 in 10.0 mi SW 12.7 mph 17.3 mph N/A   Clear